Tracking 19832 objects as of 24-Aug-2019
HD Live streaming from Space Station
objects crossing your sky now

LANDSAT 4

Track LANDSAT 4 now!
10-day predictions
LANDSAT 4 is classified as:


NORAD ID: 13367
Int'l Code: 1982-072A
Perigee: 513.5 km
Apogee: 531.8 km
Inclination: 98.2 °
Period: 94.9 minutes
Semi major axis: 6893 km
RCS: 7.754 m2 (large)
Launch date: July 16, 1982
Source: United States (US)
Launch site: AIR FORCE WESTERN TEST RANGE (AFWTR)
aabbcc
Your satellite tracking list
Your tracking list is empty




NASA's NSSDC Master Catalog

Two Line Element Set (TLE):
1 13367U 82072A   19236.46778821  .00000221  00000-0  15271-4 0  9998
2 13367  98.2071 118.3018 0013271  11.2044  85.5998 15.16803796  6003
Source of the keplerian elements: AFSPC